Hourly Weather Agadir

Today, 7 March, Sunday

Time Temperature Precipitation Wind Pressure Humidity
00:00 +14°C° 0 mm 4 mps 762 mmHg 82%
01:00 +14°C° 0 mm 3 mps 762 mmHg 82%
02:00 +13°C° 0 mm 3 mps 762 mmHg 83%
03:00 +13°C° 0 mm 3 mps 762 mmHg 82%
04:00 +13°C° 0 mm 3 mps 762 mmHg 82%
05:00 +12°C° 0 mm 3 mps 762 mmHg 82%
06:00 +14°C° 0 mm 3 mps 762 mmHg 77%
07:00 +16°C° 0 mm 3 mps 763 mmHg 71%
08:00 +17°C° 0 mm 3 mps 763 mmHg 65%
09:00 +19°C° 0 mm 4 mps 763 mmHg 60%
10:00 +20°C° 0 mm 4 mps 763 mmHg 54%
11:00 +21°C° 0 mm 4 mps 763 mmHg 49%
12:00 +22°C° 0 mm 6 mps 763 mmHg 50%
13:00 +22°C° 0 mm 8 mps 762 mmHg 51%
14:00 +22°C° 0 mm 10 mps 762 mmHg 52%
15:00 +22°C° 0 mm 10 mps 762 mmHg 54%
16:00 +21°C° 0 mm 10 mps 761 mmHg 57%
17:00 +21°C° 0 mm 10 mps 761 mmHg 59%
18:00 +18°C° 0 mm 9 mps 762 mmHg 64%
19:00 +17°C° 0 mm 7 mps 762 mmHg 69%
20:00 +16°C° 0 mm 6 mps 762 mmHg 74%
21:00 +16°C° 0 mm 6 mps 762 mmHg 77%
22:00 +15°C° 0 mm 5 mps 762 mmHg 79%
23:00 +15°C° 0 mm 5 mps 762 mmHg 82%

Tomorrow, 8 March, Monday

Time Temperature Precipitation Wind Pressure Humidity
00:00 +15°C° 0 mm 5 mps 762 mmHg 83%
01:00 +14°C° 0 mm 4 mps 761 mmHg 84%
02:00 +14°C° 0 mm 4 mps 761 mmHg 85%
03:00 +14°C° 0 mm 3 mps 761 mmHg 85%
04:00 +13°C° 0 mm 3 mps 761 mmHg 86%
05:00 +13°C° 0 mm 3 mps 761 mmHg 87%
06:00 +15°C° 0 mm 2 mps 761 mmHg 83%
07:00 +16°C° 0 mm 2 mps 761 mmHg 78%
08:00 +17°C° 0 mm 2 mps 762 mmHg 74%
09:00 +18°C° 0 mm 3 mps 762 mmHg 69%
10:00 +19°C° 0 mm 4 mps 762 mmHg 64%
11:00 +20°C° 0 mm 4 mps 761 mmHg 59%
12:00 +21°C° 0 mm 6 mps 761 mmHg 58%
13:00 +21°C° 0 mm 7 mps 760 mmHg 56%
14:00 +21°C° 0 mm 8 mps 760 mmHg 54%
15:00 +21°C° 0 mm 8 mps 760 mmHg 55%
16:00 +19°C° 0 mm 9 mps 760 mmHg 56%
17:00 +19°C° 0 mm 9 mps 759 mmHg 57%
18:00 +18°C° 0 mm 8 mps 760 mmHg 61%
19:00 +17°C° 0 mm 7 mps 760 mmHg 64%
20:00 +16°C° 0 mm 6 mps 761 mmHg 68%
21:00 +15°C° 0 mm 6 mps 761 mmHg 71%
22:00 +15°C° 0 mm 5 mps 760 mmHg 74%
23:00 +14°C° 0 mm 5 mps 760 mmHg 77%

Day after tomorrow, 9 March, Tuesday

Time Temperature Precipitation Wind Pressure Humidity
00:00 +14°C° 0 mm 4 mps 760 mmHg 77%
01:00 +13°C° 0 mm 4 mps 760 mmHg 78%
02:00 +13°C° 0 mm 3 mps 760 mmHg 78%
03:00 +13°C° 0 mm 3 mps 759 mmHg 78%
04:00 +12°C° 0 mm 3 mps 759 mmHg 78%
05:00 +12°C° 0 mm 3 mps 759 mmHg 79%
06:00 +13°C° 0 mm 3 mps 759 mmHg 73%
07:00 +16°C° 0 mm 3 mps 759 mmHg 67%
08:00 +17°C° 0 mm 2 mps 760 mmHg 61%
09:00 +18°C° 0 mm 3 mps 760 mmHg 56%
10:00 +19°C° 0 mm 4 mps 760 mmHg 51%
11:00 +21°C° 0 mm 5 mps 760 mmHg 46%
12:00 +21°C° 0 mm 6 mps 760 mmHg 45%
13:00 +22°C° 0 mm 7 mps 759 mmHg 43%
14:00 +23°C° 0 mm 7 mps 759 mmHg 41%
15:00 +22°C° 0 mm 7 mps 759 mmHg 42%
16:00 +22°C° 0 mm 8 mps 759 mmHg 43%
17:00 +21°C° 0 mm 8 mps 759 mmHg 44%
18:00 +20°C° 0 mm 7 mps 759 mmHg 49%
19:00 +17°C° 0 mm 7 mps 760 mmHg 54%
20:00 +16°C° 0 mm 6 mps 760 mmHg 60%
21:00 +15°C° 0 mm 5 mps 761 mmHg 61%
22:00 +15°C° 0 mm 4 mps 761 mmHg 63%
23:00 +14°C° 0 mm 4 mps 761 mmHg 64%

10 March, Wednesday

Time Temperature Precipitation Wind Pressure Humidity
00:00 +14°C° 0 mm 3 mps 761 mmHg 65%
01:00 +14°C° 0 mm 2 mps 761 mmHg 65%
02:00 +14°C° 0 mm 2 mps 761 mmHg 65%
03:00 +14°C° 0 mm 2 mps 761 mmHg 67%
04:00 +13°C° 0 mm 1 mps 761 mmHg 68%
05:00 +13°C° 0 mm 1 mps 761 mmHg 69%
06:00 +14°C° 0 mm 1 mps 761 mmHg 64%
07:00 +16°C° 0 mm 1 mps 762 mmHg 58%
08:00 +18°C° 0 mm 1 mps 762 mmHg 53%
09:00 +19°C° 0 mm 1 mps 762 mmHg 49%
10:00 +20°C° 0 mm 2 mps 763 mmHg 45%
11:00 +21°C° 0 mm 2 mps 763 mmHg 41%
12:00 +22°C° 0 mm 3 mps 762 mmHg 41%
13:00 +22°C° 0 mm 3 mps 762 mmHg 40%
14:00 +22°C° 0 mm 3 mps 761 mmHg 40%
15:00 +22°C° 0 mm 3 mps 761 mmHg 42%
16:00 +21°C° 0 mm 3 mps 761 mmHg 43%
17:00 +21°C° 0 mm 3 mps 761 mmHg 45%
18:00 +20°C° 0 mm 3 mps 762 mmHg 50%
19:00 +18°C° 0 mm 2 mps 763 mmHg 54%
20:00 +17°C° 0 mm 2 mps 764 mmHg 58%
21:00 +17°C° 0 mm 2 mps 764 mmHg 59%
22:00 +18°C° 0 mm 1 mps 764 mmHg 59%
23:00 +18°C° 0 mm 1 mps 764 mmHg 59%

11 March, Thursday

Time Temperature Precipitation Wind Pressure Humidity
00:00 +18°C° 0 mm 1 mps 764 mmHg 57%
01:00 +18°C° 0 mm 1 mps 764 mmHg 55%
02:00 +18°C° 0 mm 1 mps 764 mmHg 53%
03:00 +18°C° 0 mm 1 mps 764 mmHg 50%
04:00 +17°C° 0 mm 2 mps 765 mmHg 47%
05:00 +17°C° 0 mm 2 mps 765 mmHg 44%
06:00 +19°C° 0 mm 2 mps 765 mmHg 41%
07:00 +20°C° 0 mm 2 mps 766 mmHg 38%
08:00 +23°C° 0 mm 2 mps 766 mmHg 35%
09:00 +24°C° 0 mm 2 mps 766 mmHg 33%
10:00 +25°C° 0 mm 2 mps 766 mmHg 31%
11:00 +26°C° 0 mm 2 mps 766 mmHg 29%
12:00 +26°C° 0 mm 3 mps 766 mmHg 30%
13:00 +26°C° 0 mm 4 mps 765 mmHg 31%
14:00 +26°C° 0 mm 6 mps 765 mmHg 32%
15:00 +25°C° 0 mm 5 mps 765 mmHg 33%
16:00 +25°C° 0 mm 5 mps 765 mmHg 35%
17:00 +23°C° 0 mm 5 mps 764 mmHg 36%
18:00 +22°C° 0 mm 4 mps 765 mmHg 42%
19:00 +20°C° 0 mm 3 mps 765 mmHg 47%
20:00 +19°C° 0 mm 2 mps 765 mmHg 53%
21:00 +18°C° 0 mm 2 mps 765 mmHg 55%
22:00 +18°C° 0 mm 2 mps 766 mmHg 58%
23:00 +17°C° 0 mm 2 mps 766 mmHg 61%

12 March, Friday

Time Temperature Precipitation Wind Pressure Humidity
00:00 +17°C° 0 mm 2 mps 765 mmHg 58%
01:00 +17°C° 0 mm 3 mps 765 mmHg 55%
02:00 +17°C° 0 mm 3 mps 765 mmHg 52%
03:00 +17°C° 0 mm 2 mps 765 mmHg 51%
04:00 +17°C° 0 mm 2 mps 765 mmHg 50%
05:00 +17°C° 0 mm 2 mps 765 mmHg 48%
06:00 +19°C° 0 mm 2 mps 765 mmHg 45%
07:00 +21°C° 0 mm 1 mps 765 mmHg 41%
08:00 +23°C° 0 mm 1 mps 766 mmHg 37%
09:00 +24°C° 0 mm 2 mps 766 mmHg 35%
10:00 +25°C° 0 mm 2 mps 765 mmHg 33%
11:00 +26°C° 0 mm 2 mps 765 mmHg 31%
12:00 +26°C° 0 mm 3 mps 765 mmHg 30%
13:00 +26°C° 0 mm 3 mps 764 mmHg 30%
14:00 +26°C° 0 mm 4 mps 763 mmHg 29%
15:00 +25°C° 0 mm 3 mps 763 mmHg 31%
16:00 +24°C° 0 mm 3 mps 763 mmHg 33%
17:00 +22°C° 0 mm 3 mps 763 mmHg 35%
18:00 +21°C° 0 mm 2 mps 763 mmHg 42%
19:00 +20°C° 0 mm 2 mps 764 mmHg 50%
20:00 +19°C° 0 mm 1 mps 764 mmHg 57%
21:00 +19°C° 0 mm 1 mps 764 mmHg 57%
22:00 +18°C° 0 mm 1 mps 764 mmHg 58%
23:00 +18°C° 0 mm 1 mps 764 mmHg 59%
Show more